BST,Max TemperatureF,Mean TemperatureF,Min TemperatureF,Max Dew PointF,MeanDew PointF,Min DewpointF,Max Humidity, Mean Humidity, Min Humidity, Max Sea Level PressureIn, Mean Sea Level PressureIn, Min Sea Level PressureIn, Max VisibilityMiles, Mean VisibilityMiles, Min VisibilityMiles, Max Wind SpeedMPH, Mean Wind SpeedMPH, Max Gust SpeedMPH,PrecipitationIn, CloudCover, Events, WindDirDegrees
2013-6-1,58,54,49,52,46,41,94,74,46,30.41,30.34,30.24,16,8,5,16,11,28,0.00,3,,360
2013-6-2,63,56,48,50,46,41,100,71,39,30.47,30.42,30.39,16,9,5,16,9,,0.00,3,Fog,9
2013-6-3,62,54,46,48,44,41,87,64,43,30.46,30.43,30.39,16,11,6,13,9,,0.00,1,,80
2013-6-4,59,52,44,47,43,41,93,69,39,30.40,30.28,30.08,16,8,6,24,10,,0.00,1,,87
2013-6-5,58,52,45,50,47,41,94,80,67,30.18,30.10,30.04,16,7,4,21,11,,0.00,4,,88
2013-6-6,64,57,50,52,49,46,88,71,53,30.12,30.07,30.04,11,6,4,25,16,38,0.00,3,,88
2013-6-7,67,60,54,54,51,48,88,68,47,30.14,30.11,30.09,12,7,5,25,15,38,0.00,3,,82
2013-6-8,66,58,51,52,49,46,88,67,40,30.13,30.08,30.04,12,7,2,18,13,30,0.47,3,Rain-Thunderstorm,91
2013-6-9,57,51,45,48,46,43,93,79,61,30.05,30.00,29.95,16,7,6,12,7,,0.00,3,,89
2013-6-10,55,50,44,54,49,44,100,90,73,29.99,29.92,29.83,9,4,1,18,10,,0.20,7,Rain,138
2013-6-11,60,56,52,55,54,52,100,95,81,29.87,29.81,29.74,6,2,0,21,15,33,0.01,7,Fog-Rain,212
2013-6-12,56,54,53,56,54,50,100,95,80,29.86,29.80,29.77,5,1,0,25,18,43,0.12,8,Fog-Rain,223
2013-6-13,59,56,53,54,50,48,100,83,63,30.10,29.95,29.77,9,5,1,26,21,44,0.01,5,Rain,258
2013-6-14,58,55,52,54,52,50,100,91,79,30.07,29.91,29.74,6,4,1,23,16,44,0.08,7,Rain,214
2013-6-15,58,54,51,52,49,45,88,82,70,29.95,29.85,29.77,11,6,3,23,17,38,0.03,4,Rain,251
2013-6-16,57,54,51,54,52,50,94,90,79,29.94,29.84,29.77,11,5,2,18,13,30,0.16,8,Rain,165
2013-6-17,64,58,53,57,54,53,100,90,64,29.89,29.84,29.77,10,3,1,20,13,30,0.08,7,Rain,81
2013-6-18,62,58,55,57,55,54,100,92,76,30.02,29.94,29.86,9,3,0,12,8,,0.00,7,Fog-Rain,131
2013-6-19,67,58,50,57,52,48,100,80,52,30.04,30.01,29.98,9,4,0,20,9,33,0.00,2,Fog,1
2013-6-20,62,58,53,55,52,48,100,86,72,29.98,29.88,29.83,7,4,0,15,11,,0.59,7,Rain,327
2013-6-21,61,57,53,55,53,48,100,87,69,29.98,29.92,29.86,11,4,0,16,10,28,0.24,7,Rain,273
2013-6-22,57,54,52,55,53,51,100,91,79,29.86,29.78,29.74,6,3,0,23,18,39,0.02,7,Rain,255
2013-6-23,59,56,52,52,48,46,94,75,57,30.24,30.05,29.83,11,6,2,25,20,43,0.00,5,Rain,306
2013-6-24,58,54,50,50,48,43,94,78,58,30.37,30.31,30.24,12,7,6,14,10,,0.00,3,,303
2013-6-25,59,53,47,54,51,46,94,87,73,30.47,30.41,30.36,16,6,2,8,4,,0.00,6,Fog-Rain,182
2013-6-26,63,58,52,55,53,50,100,85,62,30.51,30.48,30.45,16,5,0,10,4,,0.00,5,Fog,1
2013-6-27,63,56,50,55,52,48,100,82,59,30.49,30.42,30.33,11,6,0,14,8,,0.00,4,Fog,328
2013-6-28,61,58,54,57,55,54,100,90,79,30.32,30.27,30.24,5,2,0,17,12,29,0.00,5,Fog-Rain,312
2013-6-29,63,59,55,58,55,54,100,88,72,30.37,30.31,30.24,6,3,0,20,12,30,0.00,7,Fog,304
2013-6-30,60,56,52,55,54,52,100,92,77,30.36,30.26,30.15,11,4,0,13,8,,0.00,7,Fog-Rain,272